Lid_Strength_Index
18 19 20 22 22 21 22 21 22 22 25 23 22 20 19 17 17 17 17 16 16 15 15 14 13 13 13 12 11 10 7 5 3 2 2 3 2 3 4 5 6 6 6 5
19 18 20 23 22 21 22 22 22 21 23 20 19 19 19 18 18 17 17 17 16 15 14 14 14 13 13 12 11 10 7 6 4 2 2 3 3 2 3 4 5 6 6 6
20 17 18 23 22 21 22 21 22 26 23 20 21 20 20 19 18 18 18 17 16 15 14 13 13 12 13 12 11 9 8 6 4 2 2 2 2 3 2 3 4 5 5 6
16 17 26 20 18 19 21 20 20 21 21 20 20 19 18 17 18 18 17 17 16 15 14 12 12 12 12 12 11 9 6 6 5 4 2 2 3 3 3 3 4 4 5 5
18 20 20 19 19 20 22 22 19 21 19 20 19 18 17 17 17 17 17 16 15 14 13 12 11 11 12 12 11 8 6 6 5 4 3 3 3 3 2 2 2 2 3 4
17 21 23 20 16 15 17 22 18 19 20 20 19 22 20 17 16 16 16 15 15 14 13 12 11 10 12 12 11 9 5 5 5 4 4 5 4 3 3 2 3 2 3 3
18 20 20 16 15 14 22 22 17 17 18 19 20 19 17 15 15 15 15 15 14 14 14 12 11 11 12 12 12 9 5 5 5 5 5 6 5 5 5 4 5 5 6 6
19 21 24 15 16 20 18 16 16 16 16 17 17 17 16 16 16 15 15 15 14 14 13 11 11 12 12 12 11 7 5 5 5 6 6 6 7 6 6 6 6 7 7 8
19 19 16 14 16 15 15 16 16 16 15 15 16 16 16 16 16 16 15 15 15 14 13 13 12 10 10 10 8 7 6 6 6 6 7 7 7 8 8 7 7 7 8 8
18 16 17 16 15 15 15 16 16 16 16 15 16 15 15 15 15 15 15 15 15 14 14 14 14 13 13 12 8 7 7 7 7 7 7 7 7 7 8 8 8 8 7 8
19 17 16 15 15 16 16 16 17 17 16 16 16 16 15 15 14 13 13 14 14 14 15 15 15 14 14 13 12 8 8 8 7 7 7 8 8 7 7 7 8 8 8 7
19 18 18 17 15 15 17 17 17 18 18 17 16 16 15 15 14 13 14 13 13 14 15 15 15 15 14 13 13 9 9 8 7 8 8 8 8 9 7 7 7 7 7 7
17 16 17 16 16 16 17 17 17 16 17 18 16 16 15 15 14 13 13 13 13 14 13 14 15 15 14 14 13 10 10 9 8 8 8 9 9 9 10 8 7 7 7 7
17 17 18 17 18 17 18 17 16 17 17 16 16 15 15 15 14 14 14 13 12 12 12 13 14 15 15 14 13 12 12 10 10 9 9 9 10 10 10 10 11 10 7 7
17 18 18 17 17 17 17 17 18 18 17 17 16 16 16 16 15 14 14 13 13 12 13 12 13 14 14 14 14 14 13 13 12 11 11 11 11 11 12 12 12 12 11 10
17 18 17 17 17 17 16 16 17 17 16 16 16 16 15 15 15 14 14 13 14 14 13 12 13 13 11 14 14 14 14 12 12 12 13 12 12 12 12 12 13 13 13 13
17 16 15 16 15 15 15 15 16 16 16 16 16 16 15 15 16 15 14 14 14 14 14 13 13 12 12 12 13 13 14 14 12 14 14 13 13 14 13 13 14 14 13 11
15 15 14 14 15 15 14 14 14 15 16 15 15 16 16 16 17 16 15 14 14 14 13 13 11 12 13 12 13 13 14 14 15 14 14 14 14 14 14 15 15 15 14 13
13 14 14 14 14 14 14 14 14 14 14 15 15 16 16 16 16 16 15 16 16 16 14 13 12 12 13 12 13 14 15 15 15 15 15 15 15 15 16 16 16 16 15 15
13 13 13 13 13 14 14 14 14 15 15 15 15 15 16 16 16 16 16 16 16 16 13 14 13 14 13 13 13 16 16 16 16 16 16 17 17 18 16 16 17 17 17 16
13 13 13 13 14 14 14 14 14 15 15 15 16 16 16 15 15 16 17 17 16 14 13 14 14 14 14 15 15 17 17 17 17 17 17 18 18 18 18 17 17 17 17 17
13 13 13 13 13 13 13 14 14 15 15 16 15 15 16 16 15 16 15 16 15 13 14 15 15 13 15 15 17 17 17 17 17 18 18 18 18 19 19 18 18 18 18 17
12 13 12 12 12 13 13 14 14 15 16 15 16 16 16 16 15 16 17 15 14 14 14 15 13 13 15 17 18 18 18 18 18 18 18 19 18 19 19 19 18 18 18 18
11 11 11 11 11 13 14 13 13 14 14 15 15 15 16 16 15 14 14 14 13 14 14 15 14 14 16 17 18 19 19 19 18 18 19 18 19 20 20 20 20 19 19 18
11 11 11 12 12 13 13 13 13 14 14 14 15 15 15 14 15 15 15 15 14 14 15 15 15 15 17 17 18 19 19 19 18 18 19 19 19 20 21 21 21 20 19 19
11 11 11 11 11 12 12 13 14 13 14 14 14 13 14 14 14 14 14 14 15 14 15 15 16 16 17 18 18 18 19 19 20 20 19 20 20 21 21 21 21 21 21 21
11 10 11 11 12 12 13 12 13 14 14 14 14 13 13 13 14 13 13 14 15 15 16 16 16 16 16 16 17 18 19 19 19 19 19 21 21 22 22 22 22 21 21 21